Starlink 31226

operational
NORAD ID: 58858 Int'l Des: 2024-019 Owner: SPXS Country: US Constellation: starlink
LEOCIRCULAR

About Starlink 31226

Description loading...

Live Position

Loading 3D Globe...

Upcoming Passes

Altitude History

Altitude vs Time

uPlot chart will show altitude changes over time

Two-Line Element Set

1 58858U 24019F 25308.10073207 .00000041 00000-0 11004-4 0 9993
2 58858 42.9953 238.3153 0000476 180.6523 179.4328 15.27584116 99872
Epoch: Nov 4, 2025 • Age: 7 hours

Current Status

Altitude 485.9 km
Velocity 7.63 km/s
Sub-Earth Point 42.27°N, 160.08°E
Launch Date Jan 29, 2024
Age 1.7 years
Type internet

Technical Details

Classification Payload
Mass 730.00 kg
Dry Mass 700.00 kg
Total Mass 730.00 kg
Length 0.30 m
Diameter 4.10 m
Span 29.00 m
Shape Box + pan
Manufacturer SPXS
Bus Type Starlink V2M
Phase Status In Orbit
Owner/State SPXS/US

Large Constellations

Loading constellations...